Regional Weather Roundup
Issued by NWS Wakefield, VA

Home | Current Version | Previous Version | Text Only | Print | Product List | Glossary On
Versions: 1 2 3 4 5 6 7 8 9 10 11 12 13 14 15 16 17 18 19 20 21 22 23 24 25 26 27 28 29 30 31 32 33 34 35 36 37 38 39 40 41 42 43 44 45 46 47 48 49 50
000
ASUS41 KAKQ 260915
RWRAKQ

REGIONAL WEATHER ROUNDUP
NATIONAL WEATHER SERVICE WAKEFIELD VA
500 AM EDT TUE MAY 26 2015

Note: "fair" indicates few or no clouds below 12,000 feet with no
significant weather and/or obstructions to visibility. * = Denotes
station may not report precipitation (e.g., rain,snow,etc.),
thunder or fog.

VAZ042-051-052>054-056-261000-
NORTHERN VIRGINIA

CITY           SKY/WX    TMP DP  RH WIND       PRES   REMARKS
WASH NATIONAL  PTCLDY    69  59  70 S10       30.22R
DULLES         CLEAR     64  56  75 S8        30.20R
FORT BELVOIR   PTCLDY    67  60  78 VRB2      30.21R
QUANTICO       PTCLDY    68  58  70 SW8       30.23R
FREDERICKSBRG* CLEAR     65  59  83 S5        30.22S
STAFFORD*      CLEAR     61  56  85 S3        30.26S
WARRENTON      PTCLDY    64  58  83 S5        30.20S
CULPEPER*      CLEAR     59  55  87 SW5       30.22R
MANASSAS*      CLEAR     63  57  82 CALM      30.21R
LEESBURG*      CLEAR     63  59  88 S3        30.21S
WINCHESTER     CLEAR     68  52  56 SW6       30.19S
FRONT ROYAL*   FAIR      64  55  72 S5        30.18S
LURAY*         FAIR      59  55  88 CALM      30.21S
$$

VAZ048-049-060>072-079>083-261000-
CENTRAL AND SOUTH CENTRAL VIRGINIA

CITY           SKY/WX    TMP DP  RH WIND       PRES   REMARKS
RICHMOND       CLEAR     64  59  83 S5        30.26R
CHESTERFIELD*  NOT AVBL
PETERSBURG*    CLEAR     61  59  93 CALM      30.27R
HANOVER        CLEAR     65  59  81 S6        30.26R
TAPPAHANNOCK*  CLEAR     64  57  76 S6        30.25S
QUINTON*       FAIR      65  60  85 CALM      30.26R
CHARLOTTSVILLE CLEAR     62  56  80 SW6       30.22R
GORDONSVILLE*  FAIR      57  56  94 CALM      30.22S
ORANGE*        CLEAR     55  54  94 CALM      30.23S
LOUISA*        CLEAR     63  57  82 S3        30.22S
BUMPASS*       FAIR      61  58  88 CALM      30.23S
FARMVILLE*     CLEAR     64  62  93 SW5       30.24R
CREWE*         FAIR      61  59  92 CALM      30.25S
FORT PICKETT*  FAIR      61  59  94 S3        30.26R
CHASE CITY*    FAIR      66  65  97 SE3       30.26R
CLARKSVILLE*   FAIR      64  61  88 S5        30.25S
SOUTH HILL*    CLEAR     61  59  94 CALM      30.32R
LAWRENCEVILLE* FAIR      63  61  94 CALM      30.27R
EMPORIA*       CLEAR     59  57  94 CALM      30.29R
$$

VAZ088>098-261000-
SOUTHEAST VIRGINIA

CITY           SKY/WX    TMP DP  RH WIND       PRES   REMARKS
NORFOLK        CLEAR     65  59  81 SW9       30.27S
VIRGINIA BEACH CLEAR     67  61  81 S6        30.28R
NORFOLK NAVAL  CLEAR     71  61  70 S8        30.29R
WEST POINT*    CLEAR     69  61  74 S7        30.28R
SALUDA*        FAIR      66  61  83 SW8       30.26S
NEWPORT NEWS   CLEAR     71  61  70 SW14      30.27S
LANGLEY AFB    CLEAR     67  61  81 SW8       30.27R
FORT EUSTIS    CLEAR     66  65  95 S8        30.25S
WILLIAMSBURG*  CLEAR     70  63  78 SW3       30.28S
HR EXEC AP*    FAIR      63  59  88 S6        30.30S
FRANKLIN*      CLEAR     61  59  94 S3        30.29R
WAKEFIELD      CLEAR     64  60  87 CALM      30.27R
$$

VAZ020-022-025-037-045-261000-
WEST CENTRAL AND SOUTHWEST VIRGINIA

CITY           SKY/WX    TMP DP  RH WIND       PRES   REMARKS
STAUNTON*      CLEAR     57  54  89 SW3       30.25S
WAYNESBORO*    FAIR      57  55  91 S3        30.25S
HOT SPRINGS VA PTCLDY    60  54  80 W10       30.31F
LYNCHBURG      CLEAR     59  57  93 S5        30.26R
DANVILLE       MOCLDY    65  61  87 SW3       30.26R
SOUTH BOSTON*  FAIR      63  59  88 CALM      30.25S
MARTINSVILLE   MOCLDY    56  56 100 CALM      30.28S
ROANOKE        MOCLDY    62  57  83 CALM      30.26S
BLACKSBURG     PTCLDY    57  55  92 CALM      30.30F
DUBLIN*        PTCLDY    59  58  97 CALM      30.29R
MARION*        CLEAR     62  57  86 CALM      30.30S
HILLSVILLE*    CLEAR     63  60  90 S3        30.30R
RICHLANDS*     PTSUNNY   66  58  76 SE3       30.26F
WISE*          CLOUDY    66  57  72 S9        30.26F
ABINGDON*      MOCLDY    65  60  82 CALM      30.25S
$$

MDZ021>025-VAZ099-100-261000-
SOUTHERN MARYLAND AND THE DELMARVA PENINSULA

CITY           SKY/WX    TMP DP  RH WIND       PRES   REMARKS
PATUXENT RIVER CLEAR     67  60  78 S10       30.23S
BAY BRIDGE APT   N/A    N/A N/A N/A S10       30.22R
LEONARDTOWN    CLEAR     66  59  77 S8        30.25R
DOVER          CLEAR     65  65  99 S9        30.19S
GEORGETOWN     CLEAR     63  60  90 S8        30.24S
EASTON         CLEAR     68  63  83 SW8       30.26S
CAMBRIDGE      CLEAR     70  61  73 S7        30.23S
SALISBURY      CLEAR     60  58  92 SW5       30.25S
OCEAN CITY     CLEAR     64  62  93 VRB5      30.26S
WALLOPS ISLAND CLEAR     63  61  93 SW7       30.27S
ACCOMACK*      CLEAR     64  61  88 SW7       30.27S
$$

NCZ012>017-030>032-261000-
NORTH CENTRAL AND EASTERN NORTH CAROLINA

CITY           SKY/WX    TMP DP  RH WIND       PRES   REMARKS
ROANOKE RAPIDS FAIR      61  59  94 CALM      30.27S
RALEIGH        MOCLDY    67  63  87 S5        30.26F
ELIZABETH CITY CLEAR     66  63  90 S7        30.29S
AHOSKIE*         N/A     58  57  97 CALM      30.29R FOG
EDENTON*       CLEAR     66  62  86 S5        30.29R
CURRITUCK*     CLEAR     64  61  91 CALM      30.30R
KILL DEVIL HLS CLEAR     69  62  78 S3        30.29S
MANTEO         CLEAR     70  63  78 SW8       30.30S
CAPE HATTERAS  CLEAR     72  62  71 S8        30.30R
TARBORO*       FAIR      61  59  94 CALM      30.29R
GOLDSBORO      NOT AVBL
WASHINGTON     PTCLDY    64  62  91 CALM      30.29S
GREENVILLE     PTCLDY    63  61  94 CALM      30.29S
NEW BERN       PTCLDY    62  59  90 CALM      30.29S
WILMINGTON     MOCLDY    65  62  90 CALM      30.26S
$$

VAZ048-261000-
ELSEWHERE

CITY           SKY/WX    TMP DP  RH WIND       PRES   REMARKS
HARRISBURG PA  PTCLDY    64  60  87 SE6       30.17R
BALTIMORE      PTCLDY    63  58  83 CALM      30.20R
ANNAPOLIS      CLEAR     67  58  72 VRB5      30.21R
ANDREWS AFB    PTCLDY    65  59  80 S8        30.21R
PHILADELPHIA   PTCLDY    66  57  72 S9        30.21S
HENDERSON NC   CLEAR     62  59  90 S5        30.27S
GREENSBORO     MOCLDY    66  63  90 S3        30.26R
ROCKY MOUNT    CLEAR     61  60  97 CALM      30.28R
$$

VAZ100-261000-
MARINE

STATION/POSITION TIME  TEMP    WIND        PRES    WAVE   SWELL
                       AIR SEA DIR/SP/G            HT/PER HT/PER
                 (UTC) (F)     (DEG/KT/KT) (MB)    (FT/S) (FT/S)
BRANDYWINE LGT   0800   65 64  210/ 16/ 18 1023.6R
CAPE MAY NJ      0800   65 68  190/  7/ 10 1023.4R
LEWES DE         0800   67 63  210/  8/ 12 1023.6S
15NM E FENWICK I 0850   63 60              1024.4R   3/ 4
OCEAN-CITY-INLET 0800   62 60  210/ 11/ 12 1024.3R
WACHAPREAGUE VA  0800   68 70  220/  7/ 12 1024.9R
THOMAS POINT MD  0900   67 66  200/ 14/ 15 1023.8R
GOOSES REEF MD   0900   68 67  230/ 14/ 17 1024.2R   2/ 3
SOLOMONS ISLAND  0800      70                N/A
BISHOPS HEAD MD  0800   69 71  210/ 15/ 17 1023.6R
PINEY POINT MD   0800          230/ 13/ 16   N/A
CAMBRIDGE MD     0800   68 71  190/  4/  7 1023.4S
LEWISETTA VA     0800   69 71              1023.7R
RAPPAHANNOCK LGT 0800          200/ 15/ 16 1025.3R
STINGRAY PT      0900   69 69  220/ 14/ 16 1024.0S   1/ 2
YORK RVR RNG VA  0800   70     220/ 14/ 16 1024.0R
YORKTOWN VA      0800   69 71  200/  8/ 10 1024.3R
JAMESTOWN VA     0900   66 74  220/ 12/ 14 1023.8R
DOMINION TERM VA 0800   68     210/ 11/ 13 1025.0R
KIPTOPEKE VA     0800      73  220/ 10/ 13   N/A
CHES BAY BRIDGE  0800   68 65  190/ 13/ 15 1024.5R
CAPE HENRY VA    0800   68     200/  8/ 12 1023.8R
CHESAPEAKE LGHT  0800   67     200/ 16/ 16 1025.6R
WILLOUBY STN VA  0800   68     200/ 13/ 15 1025.6R
CAPE HENRY BUOY  0828      65                N/A     1/ 7
1ST LANDING BUOY 0900      67              1024.8R
CAPE CHARLES BUO 0826      67                N/A     2/13   2/13
OFFSHORE WE BUOY 0811      65                N/A     2/ 3   2/ 8
64NM E OF VA BCH 0850   65 63  190/  8/  8 1025.5R   1/ 6   2/ 6
DUCK PIER NC     0800   71 61  200/  9/ 12 1024.7R
44100 DUCK FRF   0824      65                N/A     2/ 7
44056 DUCK FRF   0811      63                N/A     1/ 9
OREGON INLET NC  0800   73 75  190/ 13/ 15 1025.7S
HATTERAS NC      0800   74 75  170/ 10/ 13 1025.2S
DIAMOND SHLS NC  0850   75 77  170/ 14/ 17 1025.7R   3/ 6   2/ 7
CAPE LOOKOUT NC  0900   74     180/ 12/ 13 1025.1S
$$


USA.gov is the U.S. government's official web portal to all federal, state and local government web resources and services.